This is the latest recevied weather packets stored in our database for station/object WB4ZUT. If no packets are shown the sender has not sent any weather packets the latest 10 day(s).
| Time | Temp. | Humidity | Pressure | Rain* | Wind** | Luminosity | Snow |
|---|---|---|---|---|---|---|---|
| 1777416772 | 21.11° C | 79% | 1013.1 hPa | 0 mm | - | 23 W/m² | - |
| 1777416467 | 21.11° C | 79% | 1013.3 hPa | 0 mm | - | 25 W/m² | - |
| 1777416164 | 21.11° C | 79% | 1013.6 hPa | 0 mm | - | 24 W/m² | - |
| 1777415858 | 21.11° C | 79% | 1013.5 hPa | 0 mm | - | 28 W/m² | - |
| 1777415554 | 21.11° C | 78% | 1013.4 hPa | 0 mm | - | 28 W/m² | - |
| 1777415250 | 21.11° C | 79% | 1013.5 hPa | 0 mm | - | 30 W/m² | - |
| 1777414945 | 21.11° C | 78% | 1013.5 hPa | 0 mm | - | 32 W/m² | - |
| 1777414644 | 21.67° C | 77% | 1013.6 hPa | 0 mm | - | 37 W/m² | - |
| 1777414340 | 21.67° C | 76% | 1013.4 hPa | 0 mm | - | 42 W/m² | - |
| 1777414035 | 21.67° C | 76% | 1013.5 hPa | 0 mm | - | 51 W/m² | - |
| 1777413729 | 21.67° C | 77% | 1013.2 hPa | 0 mm | - | 61 W/m² | - |
| 1777413426 | 21.67° C | 76% | 1013 hPa | 0 mm | - | 73 W/m² | - |
| 1777413122 | 21.67° C | 75% | 1013 hPa | 0 mm | - | 98 W/m² | - |
| 1777412816 | 22.22° C | 75% | 1012.9 hPa | 0 mm | - | 122 W/m² | - |
| 1777412511 | 22.22° C | 75% | 1012.7 hPa | 0 mm | - | 143 W/m² | - |
| 1777412208 | 22.78° C | 74% | 1012.3 hPa | 0 mm | - | 168 W/m² | - |
| 1777411904 | 22.78° C | 74% | 1012.5 hPa | 0 mm | - | 189 W/m² | - |
| 1777411603 | 22.78° C | 73% | 1012.7 hPa | 0 mm | - | 212 W/m² | - |
| 1777411299 | 22.78° C | 73% | 1012.4 hPa | 0 mm | - | 202 W/m² | - |
| 1777410998 | 22.22° C | 74% | 1012.9 hPa | 0 mm | - | 213 W/m² | - |
| 1777410697 | 22.22° C | 74% | 1013.1 hPa | 0 mm | - | 190 W/m² | - |
| 1777410393 | 22.22° C | 74% | 1013.3 hPa | 0 mm | - | 170 W/m² | - |
| 1777410091 | 22.22° C | 73% | 1013.4 hPa | 0 mm | - | 176 W/m² | - |
| 1777409786 | 22.22° C | 73% | 1013.4 hPa | 0 mm | - | 189 W/m² | - |
| 1777409482 | 22.22° C | 73% | 1013.3 hPa | 0 mm | - | 192 W/m² | - |
* Rain latest hour (hover to see other rain measurements)
** Current wind speed in m/s (hover to see current wind gust speed)